Location: Garshuizen
(53.3675°N, 6.7248°E)
Time: 07:56:55
(UTC+00:00)

Cosmos 1536 - Pass Details

Date: 15 May 2026
Orbit: 482 x 500 km, 82.5° (Epoch: 6 June)

Event Time Altitude Azimuth Distance (km) Brightness Sun altitude
Rises 21:29:35 0° 353° (N) 2,571 7.6 -13.1°
Reaches altitude 10° 21:31:45 10° 359° (N) 1,688 6.3 -13.3°
Maximum altitude 21:35:19 46° 74° (ENE) 670 3.1 -13.5°
Enters shadow 21:37:14 24° 137° (SE) 1,071 3.7 -13.7°
